Weather observations for the past three days for
North Platte, North Platte Regional Airport
Imperial (Metric)
Date Time (cdt) Wind (mph) Vis. (mi.) Weather Sky Cond. Temperature (ºF) Relative Humidity Wind Chill (°F) Heat Index (°F) Pressure Precipitation (in)
Air Dwpt 6 hour altimeter (in) sea level (mb) 1 hr 3 hr 6 hr
Max. Min.
24 19:53 SW 13 G 24 10.00 Fair CLR 88 55.9 34% 86 29.78 1004.8
24 18:53 N 5 10.00 Fair CLR 97 71.1 102 90 43% 105 29.75 1003.8
24 17:53 E 3 10.00 Fair CLR 100 64.9 32% 103 29.76 1004.0
24 16:53 Calm 10.00 Fair CLR 102 62.1 27% 104 29.77 1004.0
24 15:53 NW 6 10.00 Fair CLR 97 68 39% 102 29.79 1004.9
24 14:53 W 6 10.00 Fair CLR 97 64.9 35% 100 29.79 1005.0
24 13:53 NW 7 10.00 Fair CLR 97 66.9 37% 101 29.8 1005.4
24 12:53 W 5 2.00 Fair with Haze CLR 96.1 70 96.1 71.1 43% 103 29.81 1005.5
24 11:53 W 5 10.00 Fair CLR 90 68 48% 94 29.81 1005.8
24 02:53 SW 6 10.00 Fair CLR 75.9 59 56% 78 29.83 1006.6
23 20:53 SE 3 10.00 Fair CLR 84.9 64.9 51% 87 29.82 1006.4
23 19:53 S 7 10.00 Fair CLR 91 64.9 42% 93 29.82 1006.6
23 18:53 S 7 10.00 Fair CLR 93.9 64 97 89.1 37% 96 29.82 1006.8
23 17:53 S 7 10.00 Fair CLR 96.1 62.1 32% 97 29.84 1007.2
23 16:53 S 7 10.00 Fair CLR 97 62.1 32% 98 29.85 1007.6
23 15:53 SW 13 G 24 10.00 A Few Clouds FEW110 96.1 63 34% 98 29.86 1007.9
23 05:53 E 5 9.00 Fair CLR 61 60.1 97% 30 1013.1
23 04:53 E 3 9.00 Fair CLR 61 59 93% 30 1013.1
23 03:53 E 6 10.00 Fair CLR 63 61 93% 29.99 1012.9
23 02:53 E 5 10.00 Fair CLR 62.1 60.1 93% 30.01 1013.7
23 01:53 Calm 10.00 Fair CLR 64 61 90% 30.02 1013.9
23 00:53 E 3 10.00 Fair CLR 64.9 62.1 86 63 90% 30.02 1013.8
22 23:53 E 6 10.00 Fair CLR 66 62.1 87% 30.01 1013.9
22 22:53 E 6 10.00 Fair CLR 68 63 84% 30.01 1013.7
22 21:53 E 6 10.00 Fair CLR 70 64 82% 29.99 1013.0
22 20:53 E 7 10.00 Fair CLR 75.9 66.9 74% 77 29.97 1012.3
22 19:53 N 3 10.00 Fair CLR 84.9 68 57% 88 29.97 1012.0
22 18:53 W 5 10.00 Fair CLR 86 64.9 88 79 49% 88 29.98 1012.1
22 17:53 NW 3 10.00 Fair CLR 86 64.9 49% 88 29.98 1012.1
22 16:53 Calm 10.00 Fair CLR 87.1 64 46% 88 29.98 1012.0
22 15:53 NW 8 10.00 Fair CLR 84 64.9 53% 86 29.98 1012.4
22 14:53 N 7 G 17 10.00 A Few Clouds FEW040 82 64.9 56% 84 29.99 1012.8
22 13:53 N 13 10.00 Partly Cloudy SCT040 82 66 58% 84 29.99 1012.5
22 12:53 NW 10 G 20 10.00 Mostly Cloudy FEW039 BKN050 81 66.9 81 68 62% 83 29.99 1012.6
22 11:53 NW 9 10.00 Mostly Cloudy SCT028 BKN046 78.1 68 71% 80 29.98 1012.6
22 10:53 N 10 10.00 A Few Clouds FEW019 75.9 66.9 74% 77 29.97 1012.2
22 09:53 N 13 10.00 Overcast OVC016 73.9 68 82% 29.97 1012.1
22 08:53 NW 13 G 20 10.00 Overcast OVC010 69.1 66 90% 29.95 1011.8
22 07:53 NW 12 G 21 10.00 Overcast OVC009 69.1 66.9 93% 29.93 1011.0
22 06:53 NW 9 10.00 Overcast OVC005 68 66 70 66 93% 29.92 1010.3 0.33
22 05:53 NW 8 10.00 Overcast OVC005 68 66.9 96% 29.89 1009.4
22 04:53 N 8 10.00 Mostly Cloudy BKN005 68 66 93% 29.88 1009.3
22 03:53 NE 9 10.00 Fair CLR 68 64.9 90% 29.88 1008.8 0.33 0.33
22 02:53 N 12 10.00 Thunderstorm in Vicinity BKN006 OVC110 70 68 93% 29.91 1009.4
22 01:53 N 9 10.00 Fair CLR 69.1 66.9 93% 29.9 1009.6
22 00:53 E 7 10.00 Fair CLR 70 68 79 70 93% 29.86 1008.0
21 23:53 NE 9 10.00 Fair CLR 71.1 68 90% 29.88 1008.9
21 22:53 N 10 10.00 Mostly Cloudy SCT070 BKN100 71.1 69.1 94% 29.89 1009.5
21 21:53 Calm 10.00 Fair CLR 73 68 84% 29.87 1008.5
21 20:53 E 5 10.00 Fair CLR 73.9 69.1 85% 29.85 1007.9
Date Time (cdt) Wind (mph) Vis. (mi.) Weather Sky Cond. Air Dwpt Max. Min. Relative Humidity Wind Chill (°F) Heat Index (°F) altimeter (in) sea level (mb) 1 hr 3 hr 6 hr
6 hour
Temperature (ºF) Pressure Precipitation (in)